SAS12 LATI-LGSA

Flight info

Callsign SAS12
Flight time 1h 1m
Altitude 37000
Route ELBAK DCT DIMIS UL604 TRL UJ65 SOKRI
Aircraft B738/M-SDE2E3FGHIRWXY/LB1

Departure

Time 2026-05-08 18:01
Airport Tirana International Airport Mother Teresa (LATI)

Arrival

Time 2026-05-08 19:03
Airport Chania International Airport (LGSA)
Time Latitude Longitude Altitude Speed Heading
2026-05-08 17:47 41.42107 19.71499 121 ft 0 kts 265°
2026-05-08 17:54 41.42108 19.71508 121 ft 1 kts 265°
2026-05-08 17:54 41.42108 19.71518 101 ft 1 kts 281°
2026-05-08 17:55 41.42106 19.71528 96 ft 1 kts 296°
2026-05-08 17:55 41.42102 19.71537 125 ft 1 kts 309°
2026-05-08 17:55 41.42097 19.71545 122 ft 1 kts 317°
2026-05-08 17:55 41.42091 19.71552 119 ft 1 kts 322°
2026-05-08 17:56 41.42085 19.71559 118 ft 1 kts 335°
2026-05-08 17:56 41.42083 19.71560 118 ft 0 kts 338°
2026-05-08 17:58 41.42085 19.71559 118 ft 3 kts 342°
2026-05-08 17:58 41.42159 19.71552 120 ft 16 kts 355°
2026-05-08 17:58 41.42303 19.71541 119 ft 24 kts 355°
2026-05-08 17:58 41.42485 19.71512 117 ft 26 kts 353°
2026-05-08 17:59 41.42648 19.71509 113 ft 13 kts 33°
2026-05-08 17:59 41.42678 19.71619 117 ft 13 kts 81°
2026-05-08 17:59 41.42684 19.71737 116 ft 13 kts 86°
2026-05-08 17:59 41.42687 19.71784 117 ft 0 kts 86°
2026-05-08 18:00 41.42686 19.71814 116 ft 12 kts 95°
2026-05-08 18:00 41.42637 19.71912 118 ft 16 kts 152°
2026-05-08 18:01 41.42444 19.71933 117 ft 57 kts 175°
2026-05-08 18:01 41.41713 19.72028 123 ft 150 kts 174°
2026-05-08 18:01 41.40435 19.72204 307 ft 208 kts 174°
2026-05-08 18:01 41.39148 19.72369 2143 ft 160 kts 173°
2026-05-08 18:02 41.37920 19.72527 2967 ft 204 kts 174°
2026-05-08 18:02 41.36946 19.72661 3282 ft 223 kts 174°
2026-05-08 18:02 41.35364 19.72877 3893 ft 234 kts 175°
2026-05-08 18:02 41.33734 19.73095 4695 ft 236 kts 176°
2026-05-08 18:03 41.32091 19.73312 5447 ft 239 kts 176°
2026-05-08 18:03 41.30428 19.73529 6237 ft 241 kts 177°
2026-05-08 18:03 41.28749 19.73747 6969 ft 243 kts 176°
2026-05-08 18:03 41.27044 19.73970 7647 ft 249 kts 176°
2026-05-08 18:04 41.25359 19.74721 8197 ft 269 kts 153°
2026-05-08 18:04 41.23720 19.76081 8887 ft 284 kts 150°
2026-05-08 18:04 41.22063 19.77529 9932 ft 287 kts 149°
2026-05-08 18:04 41.20365 19.79019 10626 ft 303 kts 150°
2026-05-08 18:05 41.18510 19.80633 10861 ft 333 kts 149°
2026-05-08 18:05 41.16519 19.82359 11442 ft 348 kts 150°
2026-05-08 18:05 41.14469 19.84131 12289 ft 354 kts 150°
2026-05-08 18:05 41.12393 19.85922 13224 ft 358 kts 150°
2026-05-08 18:06 41.10286 19.87733 14068 ft 364 kts 150°
2026-05-08 18:06 41.08140 19.89572 14827 ft 370 kts 150°
2026-05-08 18:06 41.05958 19.91439 15566 ft 377 kts 150°
2026-05-08 18:06 41.03732 19.93341 16309 ft 383 kts 150°
2026-05-08 18:07 41.01504 19.95242 17042 ft 389 kts 150°
2026-05-08 18:07 40.99212 19.97196 17766 ft 395 kts 150°
2026-05-08 18:07 40.96886 19.99178 18465 ft 401 kts 150°
2026-05-08 18:07 40.94524 20.01190 19112 ft 406 kts 150°
2026-05-08 18:08 40.92139 20.03221 19816 ft 409 kts 150°
2026-05-08 18:08 40.89739 20.05262 20490 ft 413 kts 150°
2026-05-08 18:08 40.87310 20.07323 21118 ft 419 kts 150°
2026-05-08 18:08 40.84801 20.09323 21759 ft 421 kts 154°
2026-05-08 18:09 40.82196 20.11113 22413 ft 423 kts 157°
2026-05-08 18:09 40.79538 20.12818 23002 ft 427 kts 158°
2026-05-08 18:09 40.76836 20.14518 23545 ft 433 kts 158°
2026-05-08 18:09 40.74106 20.16243 24037 ft 436 kts 158°
2026-05-08 18:10 40.71373 20.17990 24572 ft 437 kts 157°
2026-05-08 18:10 40.68636 20.19758 25088 ft 439 kts 157°
2026-05-08 18:10 40.65880 20.21551 25560 ft 443 kts 157°
2026-05-08 18:10 40.63114 20.23356 26006 ft 446 kts 157°
2026-05-08 18:11 40.60329 20.25176 26536 ft 448 kts 156°
2026-05-08 18:11 40.57525 20.27008 26978 ft 451 kts 156°
2026-05-08 18:11 40.54709 20.28845 27448 ft 453 kts 156°
2026-05-08 18:11 40.51871 20.30695 27960 ft 455 kts 156°
2026-05-08 18:12 40.49029 20.32545 28398 ft 458 kts 156°
2026-05-08 18:12 40.46157 20.34411 28800 ft 461 kts 156°
2026-05-08 18:12 40.43272 20.36284 29179 ft 465 kts 156°
2026-05-08 18:12 40.40361 20.38172 29593 ft 468 kts 156°
2026-05-08 18:13 40.37433 20.40070 29975 ft 471 kts 156°
2026-05-08 18:13 40.34528 20.41951 30287 ft 474 kts 157°
2026-05-08 18:13 40.31522 20.43895 30505 ft 479 kts 157°
2026-05-08 18:13 40.28519 20.45835 30711 ft 483 kts 157°
2026-05-08 18:14 40.25531 20.47763 30979 ft 486 kts 157°
2026-05-08 18:14 40.22448 20.49753 31298 ft 489 kts 158°
2026-05-08 18:14 40.19390 20.51724 31608 ft 491 kts 158°
2026-05-08 18:14 40.16316 20.53703 31930 ft 493 kts 158°
2026-05-08 18:15 40.13277 20.55659 32263 ft 494 kts 158°
2026-05-08 18:15 40.10189 20.57643 32566 ft 496 kts 159°
2026-05-08 18:15 40.07084 20.59635 32873 ft 498 kts 159°
2026-05-08 18:15 40.03956 20.61591 33220 ft 498 kts 160°
2026-05-08 18:16 40.00806 20.63506 33507 ft 500 kts 160°
2026-05-08 18:16 39.97646 20.65407 33826 ft 501 kts 161°
2026-05-08 18:16 39.94479 20.67309 34205 ft 501 kts 161°
2026-05-08 18:16 39.91322 20.69213 34578 ft 500 kts 161°
2026-05-08 18:17 39.88173 20.71116 34939 ft 499 kts 161°
2026-05-08 18:17 39.85018 20.73026 35278 ft 499 kts 161°
2026-05-08 18:17 39.81873 20.74930 35630 ft 498 kts 161°
2026-05-08 18:17 39.78738 20.76827 35971 ft 497 kts 161°
2026-05-08 18:18 39.75604 20.78720 36336 ft 496 kts 161°
2026-05-08 18:18 39.72480 20.80606 36720 ft 494 kts 161°
2026-05-08 18:18 39.69363 20.82486 37054 ft 494 kts 160°
2026-05-08 18:18 39.66263 20.84473 37056 ft 500 kts 158°
2026-05-08 18:19 39.60110 20.88732 37075 ft 501 kts 157°
2026-05-08 18:19 39.54023 20.93005 37074 ft 495 kts 158°
2026-05-08 18:20 39.47993 20.97161 37070 ft 494 kts 158°
2026-05-08 18:20 39.41902 21.01308 37088 ft 496 kts 158°
2026-05-08 18:21 39.35786 21.05458 37084 ft 497 kts 158°
2026-05-08 18:21 39.29663 21.09609 37088 ft 498 kts 158°
2026-05-08 18:22 39.23522 21.13763 37081 ft 498 kts 159°
2026-05-08 18:22 39.17387 21.17898 37082 ft 498 kts 159°
2026-05-08 18:23 39.11240 21.22044 37090 ft 498 kts 159°
2026-05-08 18:23 39.05107 21.26175 37082 ft 497 kts 159°
2026-05-08 18:24 38.98980 21.30292 37089 ft 496 kts 159°
2026-05-08 18:24 38.92855 21.34399 37086 ft 496 kts 159°
2026-05-08 18:25 38.86743 21.38489 37091 ft 496 kts 159°
2026-05-08 18:25 38.80670 21.42548 37087 ft 495 kts 159°
2026-05-08 18:26 38.74571 21.46618 37095 ft 495 kts 159°
2026-05-08 18:26 38.68453 21.50684 37094 ft 495 kts 159°
2026-05-08 18:27 38.63327 21.54075 37100 ft 495 kts 159°
2026-05-08 18:27 38.56211 21.58777 37091 ft 495 kts 159°
2026-05-08 18:28 38.50102 21.62812 37095 ft 494 kts 159°
2026-05-08 18:28 38.43993 21.66839 37105 ft 494 kts 159°
2026-05-08 18:29 38.37967 21.70804 37088 ft 494 kts 159°
2026-05-08 18:29 38.31861 21.74815 37077 ft 494 kts 159°
2026-05-08 18:30 38.25758 21.78815 37089 ft 493 kts 159°
2026-05-08 18:30 38.19660 21.82804 37098 ft 493 kts 159°
2026-05-08 18:31 38.13552 21.86792 37079 ft 493 kts 159°
2026-05-08 18:31 38.07455 21.90766 37078 ft 492 kts 159°
2026-05-08 18:32 38.01405 21.94704 37070 ft 491 kts 159°
2026-05-08 18:32 37.95335 21.98643 37102 ft 489 kts 159°
2026-05-08 18:33 37.89273 22.02572 37098 ft 489 kts 159°
2026-05-08 18:33 37.83215 22.06492 37106 ft 489 kts 159°
2026-05-08 18:34 37.77158 22.10402 37085 ft 489 kts 159°
2026-05-08 18:34 37.71083 22.14318 37110 ft 490 kts 159°
2026-05-08 18:35 37.64991 22.18238 37102 ft 492 kts 159°
2026-05-08 18:35 37.58890 22.22157 37104 ft 492 kts 159°
2026-05-08 18:36 37.52788 22.26071 37112 ft 492 kts 159°
2026-05-08 18:36 37.46730 22.29952 37117 ft 492 kts 159°
2026-05-08 18:37 37.40655 22.33897 37112 ft 493 kts 155°
2026-05-08 18:37 37.35095 22.39065 37116 ft 499 kts 146°
2026-05-08 18:38 37.29733 22.44585 37103 ft 497 kts 145°
2026-05-08 18:38 37.24380 22.50056 37109 ft 495 kts 146°
2026-05-08 18:39 37.19020 22.55448 37110 ft 492 kts 146°
2026-05-08 18:39 37.13683 22.60776 37108 ft 489 kts 146°
2026-05-08 18:40 37.08361 22.66077 37106 ft 488 kts 146°
2026-05-08 18:40 37.03043 22.71367 36765 ft 491 kts 146°
2026-05-08 18:41 37.00374 22.74017 36170 ft 489 kts 146°
2026-05-08 18:41 36.97708 22.76665 35484 ft 489 kts 146°
2026-05-08 18:41 36.95044 22.79309 34772 ft 490 kts 146°
2026-05-08 18:41 36.92369 22.81961 34030 ft 491 kts 146°
2026-05-08 18:42 36.89685 22.84619 33153 ft 493 kts 146°
2026-05-08 18:42 36.86997 22.87280 32317 ft 494 kts 146°
2026-05-08 18:42 36.84299 22.89952 31478 ft 495 kts 146°
2026-05-08 18:42 36.81596 22.92626 30616 ft 497 kts 146°
2026-05-08 18:43 36.78891 22.95300 29945 ft 494 kts 146°
2026-05-08 18:43 36.76210 22.97947 29198 ft 489 kts 146°
2026-05-08 18:43 36.73555 23.00565 28531 ft 484 kts 146°
2026-05-08 18:43 36.70929 23.03152 27884 ft 478 kts 146°
2026-05-08 18:44 36.68334 23.05704 27223 ft 473 kts 146°
2026-05-08 18:44 36.65792 23.08200 26598 ft 469 kts 146°
2026-05-08 18:44 36.63238 23.10706 25974 ft 465 kts 146°
2026-05-08 18:44 36.60708 23.13185 25350 ft 462 kts 146°
2026-05-08 18:45 36.58188 23.15652 24698 ft 459 kts 146°
2026-05-08 18:45 36.55683 23.18104 24062 ft 457 kts 146°
2026-05-08 18:45 36.53192 23.20540 23376 ft 455 kts 146°
2026-05-08 18:45 36.50712 23.22963 22683 ft 451 kts 146°
2026-05-08 18:46 36.48261 23.25357 22041 ft 446 kts 146°
2026-05-08 18:46 36.45831 23.27729 21414 ft 442 kts 146°
2026-05-08 18:46 36.43426 23.30073 20796 ft 437 kts 146°
2026-05-08 18:46 36.41044 23.32394 20189 ft 433 kts 146°
2026-05-08 18:47 36.38683 23.34692 19578 ft 430 kts 146°
2026-05-08 18:47 36.36337 23.36973 18963 ft 427 kts 146°
2026-05-08 18:47 36.34008 23.39235 18339 ft 424 kts 146°
2026-05-08 18:47 36.31695 23.41482 17661 ft 421 kts 146°
2026-05-08 18:48 36.29401 23.43710 17041 ft 416 kts 146°
2026-05-08 18:48 36.27135 23.45907 16441 ft 411 kts 146°
2026-05-08 18:48 36.24893 23.48078 15897 ft 406 kts 146°
2026-05-08 18:48 36.22687 23.50213 15409 ft 400 kts 146°
2026-05-08 18:49 36.20501 23.52324 14855 ft 396 kts 146°
2026-05-08 18:49 36.18367 23.54378 14303 ft 393 kts 147°
2026-05-08 18:49 36.16215 23.56447 13693 ft 391 kts 147°
2026-05-08 18:49 36.14078 23.58504 13071 ft 388 kts 147°
2026-05-08 18:50 36.11962 23.60542 12485 ft 384 kts 147°
2026-05-08 18:50 36.09864 23.62563 11917 ft 380 kts 147°
2026-05-08 18:50 36.07785 23.64566 11353 ft 377 kts 147°
2026-05-08 18:50 36.06391 23.65907 10980 ft 375 kts 147°
2026-05-08 18:51 36.03714 23.68485 10629 ft 360 kts 147°
2026-05-08 18:51 36.01771 23.70352 10422 ft 348 kts 147°
2026-05-08 18:51 36.00493 23.71578 10315 ft 340 kts 147°
2026-05-08 18:51 35.98654 23.73342 10165 ft 329 kts 147°
2026-05-08 18:52 35.96901 23.75022 10027 ft 318 kts 147°
2026-05-08 18:52 35.95185 23.76667 9958 ft 306 kts 148°
2026-05-08 18:52 35.93476 23.78299 9478 ft 309 kts 147°
2026-05-08 18:52 35.91780 23.79919 9105 ft 308 kts 147°
2026-05-08 18:53 35.90094 23.81530 8770 ft 306 kts 147°
2026-05-08 18:53 35.88442 23.83111 8442 ft 304 kts 147°
2026-05-08 18:53 35.86779 23.84703 8117 ft 301 kts 147°
2026-05-08 18:53 35.85129 23.86282 7803 ft 299 kts 147°
2026-05-08 18:54 35.83493 23.87848 7494 ft 296 kts 147°
2026-05-08 18:54 35.81869 23.89399 7185 ft 294 kts 146°
2026-05-08 18:54 35.80257 23.90936 6875 ft 292 kts 146°
2026-05-08 18:54 35.78654 23.92462 6558 ft 290 kts 147°
2026-05-08 18:55 35.75073 23.93066 6057 ft 253 kts 210°
2026-05-08 18:55 35.73707 23.91860 5889 ft 237 kts 225°
2026-05-08 18:55 35.72522 23.90467 5629 ft 235 kts 226°
2026-05-08 18:56 35.71299 23.89130 5364 ft 235 kts 222°
2026-05-08 18:56 35.70018 23.87883 5102 ft 234 kts 220°
2026-05-08 18:56 35.68700 23.86713 4835 ft 234 kts 217°
2026-05-08 18:56 35.67329 23.85638 4567 ft 234 kts 213°
2026-05-08 18:57 35.65863 23.84862 4346 ft 234 kts 191°
2026-05-08 18:57 35.64263 23.85039 4249 ft 232 kts 163°
2026-05-08 18:57 35.62920 23.86096 4155 ft 230 kts 137°
2026-05-08 18:57 35.62049 23.87724 4047 ft 227 kts 117°
2026-05-08 18:58 35.61456 23.89497 3931 ft 221 kts 114°
2026-05-08 18:58 35.60922 23.91210 3814 ft 208 kts 114°
2026-05-08 18:58 35.60419 23.92827 3610 ft 197 kts 114°
2026-05-08 18:58 35.59934 23.94354 3421 ft 184 kts 115°
2026-05-08 18:59 35.59484 23.95746 3235 ft 167 kts 116°
2026-05-08 18:59 35.59077 23.96991 3099 ft 153 kts 116°
2026-05-08 18:59 35.58685 23.98184 2934 ft 150 kts 116°
2026-05-08 18:59 35.58296 23.99363 2790 ft 149 kts 116°
2026-05-08 19:00 35.57918 24.00513 2632 ft 143 kts 116°
2026-05-08 19:00 35.57556 24.01610 2425 ft 136 kts 115°
2026-05-08 19:00 35.57200 24.02687 2258 ft 136 kts 116°
2026-05-08 19:00 35.56845 24.03766 2078 ft 138 kts 116°
2026-05-08 19:01 35.56484 24.04858 1895 ft 137 kts 116°
2026-05-08 19:01 35.56127 24.05938 1704 ft 134 kts 116°
2026-05-08 19:01 35.55781 24.06990 1516 ft 132 kts 116°
2026-05-08 19:01 35.55435 24.08029 1370 ft 132 kts 116°
2026-05-08 19:02 35.55084 24.09087 1209 ft 134 kts 114°
2026-05-08 19:02 35.54742 24.10121 1040 ft 133 kts 113°
2026-05-08 19:02 35.54384 24.11190 815 ft 136 kts 113°
2026-05-08 19:02 35.54053 24.12260 623 ft 131 kts 111°
2026-05-08 19:03 35.53712 24.13305 468 ft 133 kts 112°
2026-05-08 19:03 35.53372 24.14348 455 ft 131 kts 109°
2026-05-08 19:03 35.53152 24.15059 467 ft 25 kts 93°
2026-05-08 19:03 35.53163 24.15093 466 ft 8 kts 52°
2026-05-08 19:04 35.53248 24.15145 468 ft 17 kts
2026-05-08 19:04 35.53326 24.15056 466 ft 16 kts 293°
2026-05-08 19:04 35.53371 24.14929 464 ft 16 kts 293°
2026-05-08 19:04 35.53417 24.14775 462 ft 23 kts 293°
2026-05-08 19:05 35.53489 24.14558 459 ft 32 kts 291°
2026-05-08 19:05 35.53571 24.14346 456 ft 24 kts 315°
2026-05-08 19:05 35.53657 24.14331 456 ft 15 kts 341°
2026-05-08 19:05 35.53729 24.14203 455 ft 23 kts 291°
2026-05-08 19:06 35.53779 24.14080 453 ft 9 kts 322°
2026-05-08 19:06 35.53791 24.14078 453 ft 1 kts 20°
2026-05-08 19:06 35.53823 24.14096 453 ft 8 kts 11°
2026-05-08 19:06 35.53842 24.14088 452 ft 2 kts 303°
2026-05-08 19:07 35.53833 24.14063 453 ft 6 kts 227°
2026-05-08 19:07 35.53830 24.14059 453 ft 0 kts 227°